Flag for Germany Weather past 2 weeks in Jülich, North Rhine-Westphalia, Germany

Now
41 °F

Clear.


Feels Like: 38 °F
Forecast: 40 / 46 °F
Wind: 5 mph from Southwest

Location: Noervenich

Current Time: Dec 20, 2014 at 5:37:33 AM

Latest Report: Dec 20, 2014 at 3:00 AM


Visibility: 16 mi

Pressure: 30.20 "Hg

Humidity: 81%

Dew point: 35 °F

Location of JülichLocation

Historic Weather in Jülich — Graph

°F

Jülich temperature yesterday

Maximum temperature yesterday: 54 °F (at 12:00 AM)
Minimum temperature yesterday: 42 °F (at 11:00 PM)
Average temperature yesterday: 50 °F

Past Weeks' High & Low Weather Summary

 TemperatureHumidityPressure
High55 °F (Dec 18, 6:00 PM)99% (Dec 14, 6:00 AM)30.40 "Hg (Dec 14, 6:00 AM)
Low33 °F (Dec 14, 8:00 AM)63% (Dec 7, 2:00 PM)29.44 "Hg (Dec 12, 3:00 PM)
Average42 °F85%29.99 "Hg
* Reported Dec 5 3:00 AM — Dec 20 3:00 AM, Jülich, Weather by CustomWeather, © 2014

Note: Actual official high and low records may vary slightly from our data, if they occured in-between our weather recording intervals... More about our weather records

Advertising

Jülich weather history for previous 24 hours

 ConditionsComfort  
Time TempWeatherWind HumidityBarometerVisibility
3:00 AM
Dec 20
41 °FClear.5 mph81%30.20 "Hg16 mi
2:00 AM42 °FClear.5 mph78%30.19 "Hg16 mi
12:00 AM42 °FPassing clouds.6 mph79%30.15 "Hg16 mi
11:00 PM
Dec 19
42 °FClear.6 mph82%30.15 "Hg16 mi
9:00 PM42 °FPassing clouds.6 mph83%30.11 "Hg16 mi
8:00 PM42 °FPassing clouds.5 mph86%30.08 "Hg16 mi
6:00 PM46 °FPassing clouds.3 mph81%30.02 "Hg12 mi
5:00 PM46 °FOvercast.5 mph78%29.98 "Hg12 mi
3:00 PM49 °FRain. Overcast.6 mph92%29.91 "Hg4 mi
2:00 PM52 °FRain. Overcast.8 mph90%29.85 "Hg6 mi
1:00 PM53 °FLight rain. Overcast.8 mph85%29.86 "Hg7 mi
12:00 PM53 °FLight rain. Overcast.8 mph85%29.86 "Hg5 mi
11:00 AM53 °FRain. Overcast.7 mph84%29.88 "Hg4 mi
9:00 AM53 °FLight rain. Passing clouds.2 mph81%29.87 "Hg3 mi
8:00 AM54 °FLight rain. Overcast.7 mph77%29.86 "Hg12 mi
6:00 AM54 °FOvercast.7 mph76%29.90 "Hg16 mi
5:00 AM54 °FOvercast.7 mph79%29.92 "Hg16 mi
Weather by CustomWeather, © 2014

See weather overviewHow to use our weather pages